Time,TemperatureF,DewpointF,PressureIn,WindDirection,WindDirectionDegrees,WindSpeedMPH,WindSpeedGustMPH,Humidity,HourlyPrecipIn,Conditions,Clouds,dailyrainin,SoftwareType,DateUTC
2013-01-24 00:03:00,6.0,-20.0,-100.00,NNW,335,2.0,10.0,27,-99.99,,,-99.99,,2013-01-24 05:03:00,
2013-01-24 00:12:00,6.0,-20.0,-100.00,NNW,335,2.0,10.0,27,-99.99,,,-99.99,,2013-01-24 05:12:00,
2013-01-24 00:33:00,6.0,-22.0,-100.00,NNW,340,1.0,9.0,25,-99.99,,,-99.99,,2013-01-24 05:33:00,
2013-01-24 00:43:00,6.0,-21.0,-100.00,NNW,340,2.0,6.0,26,-99.99,,,-99.99,,2013-01-24 05:43:00,
2013-01-24 00:53:00,6.0,-21.0,-100.00,NNW,340,2.0,6.0,26,-99.99,,,-99.99,,2013-01-24 05:53:00,
2013-01-24 01:03:00,6.0,-24.0,-100.00,North,0,3.0,6.0,23,-99.99,,,-99.99,,2013-01-24 06:03:00,
2013-01-24 01:12:00,6.0,-23.0,-100.00,NNW,340,3.0,9.0,24,-99.99,,,-99.99,,2013-01-24 06:12:00,
2013-01-24 01:22:00,6.0,-23.0,-100.00,North,355,3.0,8.0,24,-99.99,,,-99.99,,2013-01-24 06:22:00,
2013-01-24 02:00:00,6.0,-23.0,-100.00,NNW,340,5.0,10.0,25,-99.99,,,-99.99,,2013-01-24 07:00:00,
2013-01-24 02:23:00,5.0,-20.0,-100.00,WNW,295,1.0,9.0,29,-99.99,,,-99.99,,2013-01-24 07:23:00,
2013-01-24 02:33:00,6.0,-21.0,-100.00,NNW,330,2.0,7.0,27,-99.99,,,-99.99,,2013-01-24 07:33:00,
2013-01-24 02:43:00,6.0,-23.0,-100.00,NNW,340,5.0,10.0,25,-99.99,,,-99.99,,2013-01-24 07:43:00,
2013-01-24 02:52:00,6.0,-23.0,-100.00,NNW,340,5.0,10.0,25,-99.99,,,-99.99,,2013-01-24 07:52:00,
2013-01-24 04:30:00,3.0,-17.0,-100.00,NNW,340,2.0,6.0,37,-99.99,,,-99.99,,2013-01-24 09:30:00,
2013-01-24 04:33:00,4.0,-19.0,-100.00,SW,225,1.0,6.0,33,-99.99,,,-99.99,,2013-01-24 09:33:00,
2013-01-24 04:43:00,4.0,-19.0,-100.00,NW,325,2.0,3.0,33,-99.99,,,-99.99,,2013-01-24 09:43:00,
2013-01-24 04:53:00,4.0,-19.0,-100.00,NW,325,2.0,3.0,33,-99.99,,,-99.99,,2013-01-24 09:53:00,
2013-01-24 05:03:00,4.0,-20.0,-100.00,NW,315,2.0,5.0,31,-99.99,,,-99.99,,2013-01-24 10:03:00,
2013-01-24 05:13:00,3.0,-17.0,-100.00,NNW,340,2.0,6.0,37,-99.99,,,-99.99,,2013-01-24 10:13:00,
2013-01-24 05:23:00,3.0,-17.0,-100.00,NNW,340,2.0,6.0,37,-99.99,,,-99.99,,2013-01-24 10:23:00,
2013-01-24 05:43:00,3.0,-17.0,-100.00,West,275,0.0,5.0,38,-99.99,,,-99.99,,2013-01-24 10:43:00,
2013-01-24 05:53:00,3.0,-17.0,-100.00,West,275,0.0,5.0,38,-99.99,,,-99.99,,2013-01-24 10:53:00,
2013-01-24 06:03:00,2.0,-17.0,-100.00,WSW,255,0.0,2.0,38,-99.99,,,-99.99,,2013-01-24 11:03:00,
2013-01-24 06:12:00,2.0,-17.0,-100.00,NW,320,1.0,5.0,38,-99.99,,,-99.99,,2013-01-24 11:12:00,
2013-01-24 06:23:00,2.0,-16.0,-100.00,NW,310,1.0,5.0,41,-99.99,,,-99.99,,2013-01-24 11:23:00,
2013-01-24 06:33:00,2.0,-16.0,-100.00,North,350,1.0,5.0,41,-99.99,,,-99.99,,2013-01-24 11:33:00,
2013-01-24 06:43:00,3.0,-17.0,-100.00,NW,325,2.0,5.0,38,-99.99,,,-99.99,,2013-01-24 11:43:00,
2013-01-24 06:53:00,3.0,-17.0,-100.00,NW,325,2.0,5.0,38,-99.99,,,-99.99,,2013-01-24 11:53:00,
2013-01-24 07:03:00,2.0,-17.0,-100.00,NNW,340,5.0,7.0,39,-99.99,,,-99.99,,2013-01-24 12:03:00,
2013-01-24 07:12:00,2.0,-18.0,-100.00,NNW,340,3.0,5.0,37,-99.99,,,-99.99,,2013-01-24 12:12:00,
2013-01-24 07:23:00,2.0,-16.0,-100.00,North,355,2.0,6.0,41,-99.99,,,-99.99,,2013-01-24 12:23:00,
2013-01-24 07:33:00,2.0,-17.0,-100.00,NNW,340,3.0,9.0,38,-99.99,,,-99.99,,2013-01-24 12:33:00,
2013-01-24 07:43:00,2.0,-16.0,-100.00,NW,305,2.0,6.0,43,-99.99,,,-99.99,,2013-01-24 12:43:00,
2013-01-24 07:53:00,2.0,-16.0,-100.00,NW,305,2.0,6.0,43,-99.99,,,-99.99,,2013-01-24 12:53:00,
2013-01-24 08:03:00,2.0,-18.0,-100.00,NW,325,2.0,7.0,37,-99.99,,,-99.99,,2013-01-24 13:03:00,
2013-01-24 08:13:00,3.0,-18.0,-100.00,NNW,340,5.0,8.0,35,-99.99,,,-99.99,,2013-01-24 13:13:00,
2013-01-24 08:23:00,4.0,-19.0,-100.00,NNW,330,3.0,9.0,33,-99.99,,,-99.99,,2013-01-24 13:23:00,
2013-01-24 08:33:00,4.0,-19.0,-100.00,NNW,330,3.0,9.0,33,-99.99,,,-99.99,,2013-01-24 13:33:00,
2013-01-24 08:43:00,5.0,-21.0,-100.00,NW,325,3.0,8.0,29,-99.99,,,-99.99,,2013-01-24 13:43:00,
2013-01-24 08:53:00,5.0,-21.0,-100.00,NW,325,3.0,8.0,29,-99.99,,,-99.99,,2013-01-24 13:53:00,
2013-01-24 09:03:00,6.0,-21.0,-100.00,NW,315,6.0,13.0,27,-99.99,,,-99.99,,2013-01-24 14:03:00,
2013-01-24 09:13:00,6.0,-23.0,-100.00,NNW,345,8.0,15.0,24,-99.99,,,-99.99,,2013-01-24 14:13:00,
2013-01-24 09:23:00,7.0,-22.0,-100.00,North,0,7.0,15.0,24,-99.99,,,-99.99,,2013-01-24 14:23:00,
2013-01-24 09:33:00,7.0,-24.0,-100.00,WNW,295,6.0,13.0,22,-99.99,,,-99.99,,2013-01-24 14:33:00,
2013-01-24 09:43:00,7.0,-25.0,-100.00,NNW,330,8.0,15.0,20,-99.99,,,-99.99,,2013-01-24 14:43:00,
2013-01-24 09:53:00,7.0,-25.0,-100.00,NNW,330,8.0,15.0,20,-99.99,,,-99.99,,2013-01-24 14:53:00,
2013-01-24 10:00:00,10.0,-31.0,-100.00,NNW,340,8.0,18.0,13,-99.99,,,-99.99,,2013-01-24 15:00:00,
2013-01-24 10:30:00,12.0,-30.0,-100.00,North,350,6.0,13.0,13,-99.99,,,-99.99,,2013-01-24 15:30:00,
2013-01-24 10:43:00,10.0,-31.0,-100.00,NNW,340,8.0,18.0,13,-99.99,,,-99.99,,2013-01-24 15:43:00,
2013-01-24 10:53:00,10.0,-31.0,-100.00,NNW,340,8.0,18.0,13,-99.99,,,-99.99,,2013-01-24 15:53:00,
2013-01-24 11:12:00,12.0,-30.0,-100.00,North,350,6.0,13.0,13,-99.99,,,-99.99,,2013-01-24 16:12:00,
2013-01-24 11:23:00,12.0,-30.0,-100.00,North,350,6.0,13.0,13,-99.99,,,-99.99,,2013-01-24 16:23:00,
2013-01-24 12:12:00,14.0,-29.0,-100.00,NNW,345,9.0,14.0,12,-99.99,,,-99.99,,2013-01-24 17:12:00,
2013-01-24 12:22:00,14.0,-29.0,-100.00,NNW,345,9.0,14.0,12,-99.99,,,-99.99,,2013-01-24 17:22:00,
2013-01-24 14:10:00,18.0,-36.0,-100.00,North,350,16.0,27.0,7,-99.99,,,-99.99,,2013-01-24 19:10:00,
2013-01-24 14:33:00,18.0,-34.0,-100.00,NW,320,12.0,29.0,8,-99.99,,,-99.99,,2013-01-24 19:33:00,
2013-01-24 14:42:00,18.0,-31.0,-100.00,NNW,340,13.0,22.0,9,-99.99,,,-99.99,,2013-01-24 19:42:00,
2013-01-24 14:52:00,18.0,-36.0,-100.00,North,350,16.0,27.0,7,-99.99,,,-99.99,,2013-01-24 19:52:00,
2013-01-24 15:02:00,18.0,-36.0,-100.00,North,350,16.0,27.0,7,-99.99,,,-99.99,,2013-01-24 20:02:00,
2013-01-24 15:22:00,18.0,-35.0,-100.00,NNW,335,10.0,27.0,7,-99.99,,,-99.99,,2013-01-24 20:22:00,
2013-01-24 15:33:00,19.0,-33.0,-100.00,North,350,9.0,21.0,8,-99.99,,,-99.99,,2013-01-24 20:33:00,
2013-01-24 16:23:00,19.0,-37.0,-100.00,North,350,15.0,27.0,6,-99.99,,,-99.99,,2013-01-24 21:23:00,
2013-01-24 16:30:00,19.0,-31.0,-100.00,NW,325,6.0,14.0,9,-99.99,,,-99.99,,2013-01-24 21:30:00,
2013-01-24 16:33:00,19.0,-37.0,-100.00,NNW,345,10.0,24.0,6,-99.99,,,-99.99,,2013-01-24 21:33:00,
2013-01-24 16:43:00,19.0,-37.0,-100.00,North,0,9.0,24.0,6,-99.99,,,-99.99,,2013-01-24 21:43:00,
2013-01-24 16:52:00,19.0,-37.0,-100.00,NNW,345,10.0,25.0,6,-99.99,,,-99.99,,2013-01-24 21:52:00,
2013-01-24 17:03:00,19.0,-37.0,-100.00,NNW,345,10.0,25.0,6,-99.99,,,-99.99,,2013-01-24 22:03:00,
2013-01-24 17:12:00,19.0,-31.0,-100.00,NW,325,6.0,14.0,9,-99.99,,,-99.99,,2013-01-24 22:12:00,
2013-01-24 17:22:00,19.0,-31.0,-100.00,NW,325,6.0,14.0,9,-99.99,,,-99.99,,2013-01-24 22:22:00,
2013-01-24 18:42:00,17.0,-32.0,-100.00,NNW,340,8.0,17.0,9,-99.99,,,-99.99,,2013-01-24 23:42:00,
2013-01-24 18:52:00,17.0,-29.0,-100.00,WNW,300,3.0,18.0,11,-99.99,,,-99.99,,2013-01-24 23:52:00,
2013-01-24 19:02:00,16.0,-29.0,-100.00,North,0,3.0,10.0,11,-99.99,,,-99.99,,2013-01-25 00:02:00,
2013-01-24 19:12:00,16.0,-31.0,-100.00,North,350,6.0,15.0,10,-99.99,,,-99.99,,2013-01-25 00:12:00,
2013-01-24 19:22:00,16.0,-29.0,-100.00,NNW,335,6.0,14.0,11,-99.99,,,-99.99,,2013-01-25 00:22:00,
2013-01-24 19:42:00,16.0,-28.0,-100.00,NNW,335,5.0,12.0,12,-99.99,,,-99.99,,2013-01-25 00:42:00,
2013-01-24 19:52:00,16.0,-24.0,-100.00,NW,320,2.0,16.0,15,-99.99,,,-99.99,,2013-01-25 00:52:00,
2013-01-24 20:42:00,15.0,-30.0,-100.00,NNW,345,5.0,10.0,11,-99.99,,,-99.99,,2013-01-25 01:42:00,
2013-01-24 20:52:00,15.0,-30.0,-100.00,NNW,345,5.0,10.0,11,-99.99,,,-99.99,,2013-01-25 01:52:00,
2013-01-24 21:03:00,15.0,-29.0,-100.00,NW,310,7.0,15.0,12,-99.99,,,-99.99,,2013-01-25 02:03:00,
2013-01-24 21:12:00,14.0,-27.0,-100.00,North,355,6.0,14.0,13,-99.99,,,-99.99,,2013-01-25 02:12:00,
2013-01-24 21:20:00,13.0,-28.0,-100.00,NNW,330,5.0,10.0,13,-99.99,,,-99.99,,2013-01-25 02:20:00,
2013-01-24 21:22:00,14.0,-28.0,-100.00,North,5,6.0,12.0,13,-99.99,,,-99.99,,2013-01-25 02:22:00,
2013-01-24 21:33:00,14.0,-25.0,-100.00,WNW,285,5.0,15.0,15,-99.99,,,-99.99,,2013-01-25 02:33:00,
2013-01-24 21:42:00,14.0,-26.0,-100.00,NNW,335,2.0,14.0,14,-99.99,,,-99.99,,2013-01-25 02:42:00,
2013-01-24 21:52:00,14.0,-26.0,-100.00,NNW,335,2.0,14.0,14,-99.99,,,-99.99,,2013-01-25 02:52:00,
2013-01-24 22:00:00,13.0,-27.0,-100.00,WSW,255,2.0,15.0,14,-99.99,,,-99.99,,2013-01-25 03:00:00,
2013-01-24 22:02:00,13.0,-28.0,-100.00,NNW,330,5.0,10.0,13,-99.99,,,-99.99,,2013-01-25 03:02:00,
2013-01-24 22:12:00,13.0,-28.0,-100.00,NNW,330,5.0,10.0,13,-99.99,,,-99.99,,2013-01-25 03:12:00,
2013-01-24 22:33:00,13.0,-27.0,-100.00,NNW,330,5.0,17.0,14,-99.99,,,-99.99,,2013-01-25 03:33:00,
2013-01-24 22:42:00,13.0,-27.0,-100.00,WSW,255,2.0,15.0,14,-99.99,,,-99.99,,2013-01-25 03:42:00,
2013-01-24 22:52:00,13.0,-27.0,-100.00,WSW,255,2.0,15.0,14,-99.99,,,-99.99,,2013-01-25 03:52:00,
2013-01-24 23:12:00,13.0,-29.0,-100.00,NNW,335,7.0,15.0,13,-99.99,,,-99.99,,2013-01-25 04:12:00,
2013-01-24 23:22:00,13.0,-29.0,-100.00,NNW,335,7.0,15.0,13,-99.99,,,-99.99,,2013-01-25 04:22:00,